Back to catalog

STARLINK-36827

AliveCommunicationsVLEO
NORAD 67908·PAYLOAD·🇺🇸 United States

Launched Feb 22, 2026 from Vandenberg Space Force Base

Loading…

Next Passes (next 24 hours)

TLE

FreshSource: CelesTrak SupGP

Epoch: Sep 14, 2026, 23:09 UTC

1 67908C 26036E   26257.96506944  .00028387  00000+0  10282-2 0  2571
2 67908  42.9996 256.5561 0001388 263.3163 209.4326 15.27563415    11

Track STARLINK-36827 in real time with AllMySat

Download on the App Store